TimeMDT,TemperatureF,Dew PointF,Humidity,Sea Level PressureIn,VisibilityMPH,Wind Direction,Wind SpeedMPH,Gust SpeedMPH,PrecipitationIn,Events,Conditions,WindDirDegrees,DateUTC
12:00 AM,33,33,100,29.90,,,44.7,,,,,,2013-07-13 06:00:00
12:00 AM,33.4,33.3,99,29.90,-9999.0,North,-9999.0,-,N/A,,Unknown,0,2013-07-13 06:00:00
1:00 AM,32.5,32.5,100,29.90,-9999.0,North,-9999.0,-,N/A,,Unknown,0,2013-07-13 07:00:00
2:00 AM,31.1,31.1,100,29.89,-9999.0,North,-9999.0,-,N/A,,Unknown,0,2013-07-13 08:00:00
3:00 AM,31.3,31.1,99,29.89,-9999.0,North,-9999.0,-,N/A,,Unknown,0,2013-07-13 09:00:00
4:00 AM,30.9,30.9,100,29.88,-9999.0,North,-9999.0,-,N/A,,Unknown,0,2013-07-13 10:00:00
5:00 AM,30.7,30.7,100,29.88,-9999.0,North,-9999.0,-,N/A,,Unknown,0,2013-07-13 11:00:00
6:00 AM,31,31,99,29.87,,,19.6,,,,,,2013-07-13 12:00:00
6:00 AM,30.7,30.7,100,29.87,-9999.0,North,-9999.0,-,N/A,,Unknown,0,2013-07-13 12:00:00
7:00 AM,30.7,30.7,100,29.85,-9999.0,North,-9999.0,-,N/A,,Unknown,0,2013-07-13 13:00:00
8:00 AM,30.6,30.6,100,29.83,-9999.0,North,-9999.0,-,N/A,,Unknown,0,2013-07-13 14:00:00
9:00 AM,30.9,30.9,100,29.83,-9999.0,North,-9999.0,-,N/A,,Unknown,0,2013-07-13 15:00:00
10:00 AM,30.7,30.7,100,29.83,-9999.0,North,-9999.0,-,N/A,,Unknown,0,2013-07-13 16:00:00
11:00 AM,31.3,31.3,100,29.83,-9999.0,North,-9999.0,-,N/A,,Unknown,0,2013-07-13 17:00:00
12:00 PM,32,32,100,29.83,,,21.9,,,,,,2013-07-13 18:00:00
12:00 PM,32.4,32.4,100,29.83,-9999.0,North,-9999.0,-,N/A,,Unknown,0,2013-07-13 18:00:00
1:00 PM,33.8,33.8,100,29.84,-9999.0,North,-9999.0,-,N/A,,Unknown,0,2013-07-13 19:00:00
2:00 PM,35.2,35.1,99,29.86,-9999.0,North,-9999.0,-,N/A,,Unknown,0,2013-07-13 20:00:00
3:00 PM,35.8,35.4,99,29.86,-9999.0,North,-9999.0,-,N/A,,Unknown,0,2013-07-13 21:00:00
4:00 PM,36.3,35.4,97,29.86,-9999.0,North,-9999.0,-,N/A,,Unknown,0,2013-07-13 22:00:00
5:00 PM,36.3,35.6,97,29.88,-9999.0,North,-9999.0,-,N/A,,Unknown,0,2013-07-13 23:00:00
6:00 PM,36,35,97,29.89,,,19.6,,,,,,2013-07-14 00:00:00
6:00 PM,36.1,35.4,97,29.89,-9999.0,North,-9999.0,-,N/A,,Unknown,0,2013-07-14 00:00:00
7:00 PM,35.4,35.2,99,29.90,-9999.0,North,-9999.0,-,N/A,,Unknown,0,2013-07-14 01:00:00
8:00 PM,35.6,35.2,99,29.90,-9999.0,North,-9999.0,-,N/A,,Unknown,0,2013-07-14 02:00:00
9:00 PM,34.7,34.7,100,29.91,-9999.0,North,-9999.0,-,N/A,,Unknown,0,2013-07-14 03:00:00
10:00 PM,34.2,34.2,100,29.91,-9999.0,North,-9999.0,-,N/A,,Unknown,0,2013-07-14 04:00:00
11:00 PM,33.4,33.4,100,29.91,-9999.0,North,-9999.0,-,N/A,,Unknown,0,2013-07-14 05:00:00